Game: Final Fantasy VII
Bid: Miltank Total: $1,625.36

Owners
Tifa Name Bid War
NameAscDsc Time ReceivedAscDsc AmountAscDsc
Gemakai 2015-01-10T17:19:41.010725-05:00 $25.00
(Anonymous) 2015-01-10T17:10:20.081169-05:00 $20.00
Eldridge, Michael (TheMightyGrowlie) 2015-01-10T17:08:02.459293-05:00 $20.00
Jess the Great 2015-01-10T16:52:35.088808-05:00 $9.11
Johnson, Justin (Super Metroid) 2015-01-10T16:40:20.686372-05:00 $50.00
Ford, Delvonte (randomblackguy) 2015-01-10T16:31:01.082324-05:00 $20.00
Corrodias 2015-01-10T16:14:55.169757-05:00 $5.00
Brasilisk 2015-01-10T16:11:24.195743-05:00 $5.00
(Anonymous) 2015-01-10T16:03:08.108660-05:00 $25.00
Russiandoge 2015-01-10T16:03:04.574212-05:00 $10.00
Panayi, Christopher (tictac472) 2015-01-10T16:00:54.583629-05:00 $20.00
(Anonymous) 2015-01-10T15:14:43.185647-05:00 $50.00
Kineticlutch 2015-01-10T07:45:57.559040-05:00 $25.00
Axarrey 2015-01-10T06:56:23.604306-05:00 $40.00
Zartemis 2015-01-10T04:43:22.408855-05:00 $25.00
Taunes 2015-01-10T04:30:09.771833-05:00 $10.00
(Anonymous) 2015-01-10T01:00:35.403427-05:00 $10.00
(Anonymous) 2015-01-09T23:58:33.773060-05:00 $10.00
Flareaman 2015-01-09T22:50:15.893248-05:00 $99.99
(Anonymous) 2015-01-09T22:49:19.214992-05:00 $10.00
Gwardo Jones 2015-01-09T22:47:05.870734-05:00 $50.00
Todhunter, Michael (MTSowbug) 2015-01-09T22:36:54.271579-05:00 $20.00
Davenport, Aaron (ToggleSwitch) 2015-01-09T22:36:35.173221-05:00 $5.00
Calibus 2015-01-09T22:36:20.940965-05:00 $5.00
Kurt Meyers 2015-01-09T21:56:44.525629-05:00 $30.00
Larry Davis 2015-01-09T21:32:45.979616-05:00 $20.00
iSnipe 2015-01-09T21:22:49.275810-05:00 $50.00
(Anonymous) 2015-01-09T20:42:11.916673-05:00 $25.00
JintoLyn 2015-01-09T20:41:19.549041-05:00 $10.00
Simca 2015-01-09T20:24:56.444539-05:00 $20.00
(Anonymous) 2015-01-09T19:03:42.926655-05:00 $20.00
Zana 2015-01-09T17:43:25.574305-05:00 $60.00
MaxKnight1010101 2015-01-09T17:14:20.431615-05:00 $100.00
Jargus 2015-01-09T16:25:38.946010-05:00 $65.54
(Anonymous) 2015-01-09T13:06:50.697416-05:00 $5.00
iSnipe 2015-01-09T12:39:11.592579-05:00 $50.00
(Anonymous) 2015-01-09T12:28:37.013311-05:00 $10.00
Lavender 2015-01-09T06:07:38.533828-05:00 $27.72
(Anonymous) 2015-01-09T05:03:38.892106-05:00 $15.00
(Anonymous) 2015-01-08T20:47:46.798906-05:00 $10.00
(Anonymous) 2015-01-08T20:43:12.917919-05:00 $50.00
(Anonymous) 2015-01-08T17:24:45.003563-05:00 $50.00
Lord-Reindeer 2015-01-08T16:25:44.026942-05:00 $5.00
D..., Chris (Crex) 2015-01-08T15:16:41.671849-05:00 $20.00
Scherer, Dennis (Drooling) 2015-01-08T00:50:59.221537-05:00 $25.00
(Anonymous) 2015-01-07T23:44:42.197217-05:00 $25.00
(Anonymous) 2015-01-07T23:06:38.188232-05:00 $50.00
(Anonymous) 2015-01-07T22:30:58.278431-05:00 $25.00
Tobias 2015-01-07T16:30:10.985132-05:00 $25.00
(Anonymous) 2015-01-07T12:15:44.189983-05:00 $5.00

|< >|

Back to Bid Index

Back to Main Index

Running on Django with Python
Python code by UraniumAnchor, SMK, and jdeng
CSS by Cool Matty